Location: Fuglau
(48.6333°N, 15.5500°E)
Time: 11:41:20
(UTC+00:00)

COSMOS 2487 - Pass Details

Date: 27 February 2020
Orbit: 442 x 445 km, 74.7° (Epoch: 09 April)

Event Time Altitude Azimuth Distance (km) Brightness Sun altitude
Rises 17:00:16 0° 343° (NNW) 2,449 6.3 -4.6°
Reaches altitude 10° 17:02:25 10° 350° (N) 1,573 5.2 -4.9°
Maximum altitude 17:05:44 43° 64° (ENE) 634 2.7 -5.5°
Drops below altitude 10° 17:09:02 10° 137° (SE) 1,561 4.8 -6.0°
Sets 17:11:10 0° 145° (SE) 2,426 5.8 -6.4°
